Location: Unspecified
(0.0000°N, 0.0000°E)
Time: 18:12:26
(UTC+00:00)

COSMOS 2498 - Pass Details

Date: 21 May 2026
Orbit: 1476 x 1512 km, 82.4° (Epoch: 10 June)

Event Time Altitude Azimuth Distance (km) Brightness Sun altitude
Rises 04:54:54 0° 343° (NNW) 4,581 ? -14.5°
Reaches altitude 10° 04:57:53 10° 337° (NNW) 3,605 ? -13.8°
Maximum altitude 05:06:02 47° 267° (W) 1,893 ? -11.9°
Drops below altitude 10° 05:14:17 10° 196° (SSW) 3,634 ? -9.9°
Sets 05:17:20 0° 190° (S) 4,621 ? -9.2°
